Weather History for Chamberlain, SD

Change the Weather History Date:

Monday, February 18, 2013

  Actual Average Record
Temperature  
Mean Temperature -4 °C -  
Max Temperature 3 °C 1 °C 13 °C (2004)
Min Temperature -12 °C -8 °C -25 °C (2006)
Degree Days  
Heating Degree Days 40    
Moisture  
Dew Point -9 °C    
Average Humidity 67    
Maximum Humidity 76    
Minimum Humidity 57    
Precipitation  
Precipitation 0.00 mm - - ()
Sea Level Pressure  
Sea Level Pressure 1014 hPa    
Wind  
Wind Speed 31 km/h (NNW)    
Max Wind Speed 40 km/h    
Max Gust Speed 61 km/h    
Averages and records for this station are not official NWS values.
T = Trace of Precipitation, MM = Missing Value Source: NWS Daily Summary

Daily Weather History Graph

Daily Weather History Graph

Search for Another Location

Airport:

Trip Planner

Search our weather history database for the weather conditions in past years. The results will help you decide how hot, cold, wet, or windy it might be!

Date:

Astronomy

Feb. 18, 2013 Rise Set
Actual Time 7:31 AM CST 6:11 PM CST
Civil Twilight 7:01 AM CST 6:41 PM CST
Nautical Twilight 6:28 AM CST 7:14 PM CST
Astronomical Twilight 5:55 AM CST 7:47 PM CST
Moon 11:53 AM CST (2/18) 2:17 AM CST (2/18)
Length of Visible Light 11h 39m
Length of Day
10h 40m
First Quarter, 58% of the Moon is Illuminated
Feb 18
First Quarter
Feb 25
Full
Mar 4
Last Quarter
Mar 11
New
Mar 19
First Quarter

Hourly Weather History & Observations

Time (CST) Temp. Windchill Dew Point Humidity Pressure Visibility Wind Dir Wind Speed Gust Speed Precip Events Conditions
12:52 AM 2.8 °C -1.7 °C -1.7 °C 73% 1005.6 hPa - WNW 20.4 km/h / 5.7 m/s - N/A   Unknown
1:52 AM 2.2 °C -3.0 °C -1.7 °C 76% 1005.5 hPa - WNW 24.1 km/h / 6.7 m/s - N/A   Unknown
2:52 AM 2.2 °C -3.2 °C -2.2 °C 73% 1006.1 hPa - WNW 25.9 km/h / 7.2 m/s - N/A   Unknown
3:52 AM 1.7 °C -3.8 °C -2.2 °C 76% 1006.8 hPa - WNW 25.9 km/h / 7.2 m/s - N/A   Unknown
4:52 AM 1.1 °C -5.8 °C -3.9 °C 70% 1007.0 hPa - NW 38.9 km/h / 10.8 m/s 55.6 km/h / 15.4 m/s N/A   Unknown
5:52 AM -1.1 °C -8.6 °C -5.6 °C 72% 1009.2 hPa - North 37.0 km/h / 10.3 m/s 50.0 km/h / 13.9 m/s N/A   Unknown
6:52 AM -2.2 °C -10.2 °C -7.2 °C 69% 1010.3 hPa - NW 38.9 km/h / 10.8 m/s 57.4 km/h / 15.9 m/s N/A   Unknown
7:52 AM -3.3 °C -10.9 °C -7.8 °C 71% 1011.6 hPa - NW 31.5 km/h / 8.7 m/s 51.9 km/h / 14.4 m/s N/A   Unknown
8:52 AM -3.9 °C -12.3 °C -8.9 °C 69% 1012.7 hPa - NNW 37.0 km/h / 10.3 m/s 57.4 km/h / 15.9 m/s N/A   Unknown
9:52 AM -4.4 °C -13.3 °C -11.7 °C 57% 1014.1 hPa - NNW 40.7 km/h / 11.3 m/s 61.1 km/h / 17.0 m/s N/A   Unknown
10:52 AM -3.9 °C -11.9 °C -10.0 °C 63% 1014.7 hPa - NNW 33.3 km/h / 9.3 m/s 55.6 km/h / 15.4 m/s N/A   Unknown
11:52 AM -4.4 °C -11.7 °C -8.9 °C 71% 1015.6 hPa - NNW 25.9 km/h / 7.2 m/s 42.6 km/h / 11.8 m/s N/A   Unknown
12:52 PM -2.8 °C -11.0 °C -9.4 °C 61% 1015.2 hPa - NNW 38.9 km/h / 10.8 m/s 55.6 km/h / 15.4 m/s N/A   Unknown
1:52 PM -2.8 °C -10.7 °C -8.9 °C 63% 1015.6 hPa - NNW 35.2 km/h / 9.8 m/s 51.9 km/h / 14.4 m/s N/A   Unknown
2:52 PM -1.7 °C -9.4 °C -8.9 °C 58% 1015.8 hPa - NW 37.0 km/h / 10.3 m/s 46.3 km/h / 12.9 m/s N/A   Unknown
3:52 PM -2.2 °C -10.0 °C -9.4 °C 58% 1016.4 hPa - NW 37.0 km/h / 10.3 m/s 50.0 km/h / 13.9 m/s N/A   Unknown
4:52 PM -2.8 °C -10.7 °C -10.0 °C 58% 1017.1 hPa - NNW 35.2 km/h / 9.8 m/s 51.9 km/h / 14.4 m/s N/A   Unknown
5:52 PM -3.3 °C -10.2 °C -9.4 °C 63% 1018.1 hPa - NNW 25.9 km/h / 7.2 m/s 46.3 km/h / 12.9 m/s N/A   Unknown
6:52 PM -3.9 °C -12.3 °C -10.0 °C 63% 1018.9 hPa - NNW 37.0 km/h / 10.3 m/s 53.7 km/h / 14.9 m/s N/A   Unknown
7:52 PM -5.6 °C -14.6 °C -11.1 °C 66% 1020.2 hPa - North 37.0 km/h / 10.3 m/s 53.7 km/h / 14.9 m/s N/A   Unknown
8:52 PM -8.3 °C -17.5 °C -12.8 °C 71% 1021.6 hPa - North 31.5 km/h / 8.7 m/s 42.6 km/h / 11.8 m/s N/A   Unknown
9:52 PM -9.4 °C -19.1 °C -13.3 °C 74% 1022.5 hPa - North 33.3 km/h / 9.3 m/s 44.4 km/h / 12.3 m/s N/A   Unknown
10:52 PM -10.6 °C -21.2 °C -15.6 °C 67% 1023.4 hPa - North 37.0 km/h / 10.3 m/s 48.2 km/h / 13.4 m/s N/A   Unknown
11:52 PM -11.7 °C -21.4 °C -16.1 °C 70% 1024.5 hPa - NNW 27.8 km/h / 7.7 m/s - N/A   Unknown